Starlink 32477

operational
NORAD ID: 62038 Int'l Des: 2024-216 Owner: SPXS Country: US Constellation: starlink
LEOCIRCULAR

Starlink 32477について

説明を読み込み中...

リアルタイム位置

3D地球を読み込み中...

次回通過

高度履歴

Altitude vs Time

uPlot chart will show altitude changes over time

軌道要素

1 62038U 24216G 25305.57457151 .00022561 00000-0 82665-3 0 9990
2 62038 43.0047 256.2636 0002411 276.1768 83.8809 15.27587735 53165
Epoch: Nov 1, 2025 • Age: 22 hours

現在のステータス

高度 490.8 km
速度 7.62 km/s
衛星直下点 -33.54°S, 8.7°W
打ち上げ日 Nov 21, 2024
運用期間 0.9 years
タイプ internet

技術仕様

分類 Payload
質量 730.00 kg
乾燥質量 700.00 kg
総質量 730.00 kg
長さ 0.30 m
直径 4.10 m
スパン 29.00 m
形状 Box + pan
製造者 SPXS
バスタイプ Starlink V2M
フェーズステータス In Orbit
所有者/国 SPXS/US

大規模コンステレーション

Loading constellations...